Content
SEND FEEDBACK

Daily
Averages
Monthly
Summary
United States of America

YELLOWSTONE NATIONAL PARK, WYOMING


Home > North America > United States > Wyoming
Elevation: 7938 feet     Latitude: 44 34N     Longitude: 110 24W

WEATHER
 
SELECT A DAY
Number of Records: 297,359;   Date Range: 1/1/95 - 9/29/14
 
SHARE

PRINT THIS DATA

[ ← Previous Day ]
WEATHER ALMANAC - MARCH 1, 2013
[ Next Day → ]
[ °C ]   °F
Weather ElementAverageHighLow
Temperature25.1 °F32 °F (12:56 pm)17.1 °F (1:56 am)
Dewpoint20 °F24.1 °F (10:56 pm)12.9 °F (1:56 am)
Humidity81.4 %89 % (7:56 am)69 % (12:56 pm)
Barometer30.54 in30.60 in (7:56 am)30.48 in (1:56 pm)
Wind Speed1.2 mph9.2 mph (1:56 pm)
Wind Gust18.4 mph (1:56 pm)
Weather ElementAverage
Wind DirectionNNE (15.7 °)

Weather ElementTotal
Precipitation0.01 in
Heating Degree Days40.5 (Base 65)
Averaged from 23 records on March 1, 2013
WEATHER CONDITIONS BREAKOUT
WIND DIRECTION BREAKOUT
WEATHER BY HOUR - MARCH 1, 2013
[ °C ]   °F
Local TimeTemperatureDewpointHumidityBarometerVisibilityWind DirectionWind SpeedGust SpeedPrecipitationEventsConditions
1:56 AM17.1 °F12.9 °F84 %30.50 inCalm
2:56 AM17.1 °F14.0 °F88 %30.49 inCalm
3:56 AM18.0 °F15.1 °F88 %30.50 inCalm
4:56 AM18.0 °F15.1 °F88 %30.53 inCalm
5:56 AM19.0 °F15.1 °F85 %30.55 inEast (90°)3.5 mph
6:56 AM18.0 °F15.1 °F88 %30.58 inCalm
7:56 AM19.9 °F17.1 °F89 %30.60 inCalm
8:56 AM23.0 °F19.0 °F85 %30.57 inCalm
9:56 AM26.1 °F21.0 °F81 %30.54 inCalm
10:56 AM28.9 °F21.9 °F75 %30.53 inVariable3.5 mph
11:56 AM30.0 °F23.0 °F75 %30.53 inCalm
12:56 PM32.0 °F23.0 °F69 %30.51 inVariable6.9 mph
1:56 PM32.0 °F23.0 °F69 %30.48 inWest (270°)9.2 mph18.4 mph
2:56 PM30.0 °F23.0 °F75 %30.52 inCalm0.01 in
3:56 PM32.0 °F23.0 °F69 %30.51 inCalm
4:56 PM28.9 °F21.9 °F75 %30.53 inCalm
5:56 PM27.0 °F21.9 °F81 %30.55 inCalm
6:56 PM27.0 °F21.9 °F81 %30.58 inCalm
7:56 PM27.0 °F21.9 °F81 %30.56 inVariable3.5 mph
8:56 PM26.1 °F21.9 °F84 %30.56 inCalm
9:56 PM26.1 °F23.0 °F88 %30.55 inCalm
10:56 PM27.0 °F24.1 °F89 %30.53 inCalm
11:56 PM27.0 °F23.0 °F85 %30.51 inCalm
Hourly data recorded from KP60, located miles away from Yellowstone National Park, Wyoming







STORIES FROM OUR PARTNERS